Location: Newark
(25.1987°N, 100.3705°W)
Time: 05:24:10
(UTC+00:00)

LightSail 2 - Pass Details

Date: 09 April 2020
Orbit: 695 x 719 km, 24.0° (Epoch: 28 May)

Event Time Altitude Azimuth Distance (km) Brightness Sun altitude
Exits shadow 11:55:41 - 268° (W) 2,291 7.1 -7.2°
Reaches altitude 10° 11:56:05 10° 268° (W) 2,146 7.0 -7.1°
Maximum altitude 12:01:08 78° 182° (S) 708 5.2 -6.0°
Drops below altitude 10° 12:06:11 10° 96° (E) 2,138 9.1 -4.9°
Sets 12:08:35 0° 95° (E) 3,054 10.3 -4.3°
